ANA12B EIDW-EDDP

Flight info

Callsign ANA12B
Flight time N/A
Altitude 33000
Route ENDEQ1E ENDEQ Q36 ALAVA Z195 MALUD UL975 WAL M16 DOLAS L603 LAMSO DCT PETIK P154 SPY DCT NORTA/N0403F230 DCT ADMOS T959 KOJEC KOJEC1V
Aircraft B77L/H-SDE1E2E3FGHIJ2J3J4J5M1RWXY/LB1D1

Departure

Time 2026-02-17 15:06
Airport Dublin Airport (EIDW)

Arrival

Time N/A
Airport Leipzig/Halle Airport (EDDP)
Time Latitude Longitude Altitude Speed Heading
2026-02-17 14:51 53.42430 -6.26197 215 ft 0 kts 185°
2026-02-17 14:56 53.42441 -6.26195 221 ft 3 kts 173°
2026-02-17 14:57 53.42458 -6.26203 216 ft 3 kts 154°
2026-02-17 14:57 53.42475 -6.26213 221 ft 3 kts 166°
2026-02-17 14:57 53.42492 -6.26223 219 ft 3 kts 145°
2026-02-17 14:57 53.42506 -6.26243 219 ft 3 kts 123°
2026-02-17 14:58 53.42514 -6.26271 217 ft 3 kts 105°
2026-02-17 14:58 53.42518 -6.26299 220 ft 1 kts 95°
2026-02-17 14:58 53.42518 -6.26308 219 ft 0 kts 95°
2026-02-17 15:00 53.42518 -6.26298 220 ft 6 kts 96°
2026-02-17 15:00 53.42509 -6.26136 219 ft 16 kts 95°
2026-02-17 15:00 53.42498 -6.25951 221 ft 16 kts 99°
2026-02-17 15:01 53.42414 -6.25908 222 ft 16 kts 216°
2026-02-17 15:01 53.42335 -6.26039 220 ft 16 kts 226°
2026-02-17 15:01 53.42278 -6.26192 222 ft 16 kts 250°
2026-02-17 15:01 53.42272 -6.26377 217 ft 16 kts 275°
2026-02-17 15:02 53.42283 -6.26559 218 ft 16 kts 274°
2026-02-17 15:02 53.42291 -6.26749 215 ft 16 kts 274°
2026-02-17 15:02 53.42301 -6.26939 215 ft 16 kts 276°
2026-02-17 15:03 53.42324 -6.27315 222 ft 18 kts 274°
2026-02-17 15:03 53.42337 -6.27574 222 ft 26 kts 275°
2026-02-17 15:03 53.42353 -6.27872 222 ft 26 kts 275°
2026-02-17 15:03 53.42370 -6.28169 218 ft 26 kts 275°
2026-02-17 15:04 53.42386 -6.28463 215 ft 26 kts 275°
2026-02-17 15:04 53.42400 -6.28723 215 ft 17 kts 275°
2026-02-17 15:04 53.42410 -6.28921 222 ft 17 kts 272°
2026-02-17 15:04 53.42348 -6.29069 219 ft 17 kts 194°
2026-02-17 15:05 53.42247 -6.29009 223 ft 17 kts 114°
2026-02-17 15:05 53.42231 -6.28813 221 ft 17 kts 95°
2026-02-17 15:05 53.42220 -6.28595 219 ft 26 kts 95°
2026-02-17 15:05 53.42180 -6.27862 216 ft 109 kts 95°
2026-02-17 15:06 53.42087 -6.26179 449 ft 166 kts 96°
2026-02-17 15:06 53.41976 -6.24139 1137 ft 189 kts 96°
2026-02-17 15:06 53.41854 -6.21872 1999 ft 200 kts 96°
2026-02-17 15:07 53.41571 -6.16699 3134 ft 237 kts 97°
2026-02-17 15:07 53.41415 -6.13894 4038 ft 243 kts 97°
2026-02-17 15:07 53.41253 -6.11010 4887 ft 251 kts 97°
2026-02-17 15:07 53.41084 -6.08057 5749 ft 256 kts 97°
2026-02-17 15:08 53.40917 -6.05093 6594 ft 264 kts 96°
2026-02-17 15:08 53.40949 -6.01851 6868 ft 291 kts 86°
2026-02-17 15:08 53.41214 -5.98436 7566 ft 302 kts 84°
2026-02-17 15:08 53.41509 -5.94920 8405 ft 310 kts 84°
2026-02-17 15:09 53.41792 -5.91304 9069 ft 315 kts 84°
2026-02-17 15:09 53.42058 -5.87576 9651 ft 332 kts 84°
2026-02-17 15:09 53.42327 -5.83615 10028 ft 353 kts 85°
2026-02-17 15:09 53.42607 -5.79440 10687 ft 364 kts 84°
2026-02-17 15:10 53.42899 -5.75153 11441 ft 372 kts 84°
2026-02-17 15:10 53.43195 -5.70843 12227 ft 380 kts 84°
2026-02-17 15:10 53.43498 -5.66396 12805 ft 393 kts 83°
2026-02-17 15:11 53.44130 -5.57067 14171 ft 410 kts 83°
2026-02-17 15:11 53.44451 -5.52258 14886 ft 415 kts 83°
2026-02-17 15:11 53.44686 -5.47456 15549 ft 421 kts 89°
2026-02-17 15:11 53.44612 -5.42473 16156 ft 430 kts 93°
2026-02-17 15:12 53.44400 -5.37420 16760 ft 437 kts 94°
2026-02-17 15:12 53.44176 -5.32283 17379 ft 445 kts 94°
2026-02-17 15:12 53.43988 -5.27090 18005 ft 452 kts 92°
2026-02-17 15:12 53.43833 -5.21783 18572 ft 459 kts 92°
2026-02-17 15:13 53.43687 -5.16444 19124 ft 464 kts 92°
2026-02-17 15:13 53.43537 -5.10993 19713 ft 469 kts 91°
2026-02-17 15:13 53.43381 -5.05538 20281 ft 474 kts 91°
2026-02-17 15:13 53.43218 -4.99975 20833 ft 479 kts 91°
2026-02-17 15:14 53.43051 -4.94339 21363 ft 484 kts 91°
2026-02-17 15:14 53.42880 -4.88654 21904 ft 490 kts 91°
2026-02-17 15:14 53.42703 -4.82972 22428 ft 495 kts 91°
2026-02-17 15:15 53.42306 -4.71310 23476 ft 505 kts 91°
2026-02-17 15:15 53.42095 -4.65372 23916 ft 510 kts 91°
2026-02-17 15:15 53.41884 -4.59462 24303 ft 516 kts 91°
2026-02-17 15:15 53.41814 -4.53388 24654 ft 521 kts 86°
2026-02-17 15:16 53.41934 -4.47280 25006 ft 526 kts 85°
2026-02-17 15:16 53.42118 -4.41186 25389 ft 531 kts 84°
2026-02-17 15:16 53.42233 -4.34944 25754 ft 538 kts 89°
2026-02-17 15:16 53.42038 -4.28631 26111 ft 544 kts 93°
2026-02-17 15:17 53.41725 -4.22275 26463 ft 549 kts 94°
2026-02-17 15:17 53.41400 -4.15839 26803 ft 555 kts 94°
2026-02-17 15:17 53.41078 -4.09417 27133 ft 560 kts 93°
2026-02-17 15:17 53.40858 -4.02837 27456 ft 564 kts 91°
2026-02-17 15:18 53.40747 -3.96229 27767 ft 569 kts 89°
2026-02-17 15:18 53.40743 -3.89623 28061 ft 573 kts 87°
2026-02-17 15:18 53.40875 -3.82904 28365 ft 577 kts 85°
2026-02-17 15:19 53.41198 -3.69375 28971 ft 585 kts 86°
2026-02-17 15:19 53.41289 -3.62517 29378 ft 587 kts 88°
2026-02-17 15:19 53.41177 -3.55650 29805 ft 588 kts 93°
2026-02-17 15:19 53.40876 -3.48849 30177 ft 590 kts 94°
2026-02-17 15:20 53.40537 -3.42034 30490 ft 592 kts 94°
2026-02-17 15:20 53.40194 -3.35132 30836 ft 593 kts 94°
2026-02-17 15:20 53.39868 -3.28227 31194 ft 594 kts 94°
2026-02-17 15:20 53.39556 -3.21294 31529 ft 595 kts 94°
2026-02-17 15:21 53.39246 -3.14398 31856 ft 596 kts 94°
2026-02-17 15:21 53.38950 -3.07531 32157 ft 597 kts 93°
2026-02-17 15:21 53.38680 -3.00535 32469 ft 598 kts 92°
2026-02-17 15:21 53.38431 -2.93650 32778 ft 599 kts 92°
2026-02-17 15:22 53.38179 -2.86668 33084 ft 600 kts 92°
2026-02-17 15:22 53.37917 -2.79650 33378 ft 602 kts 92°
2026-02-17 15:22 53.37644 -2.72598 33662 ft 603 kts 92°
2026-02-17 15:23 53.37077 -2.58584 34190 ft 605 kts 92°
2026-02-17 15:23 53.36786 -2.51601 34460 ft 605 kts 92°
2026-02-17 15:23 53.36488 -2.44540 34776 ft 604 kts 92°
2026-02-17 15:23 53.36193 -2.37592 35030 ft 605 kts 92°
2026-02-17 15:24 53.35491 -2.23412 35078 ft 613 kts 97°
2026-02-17 15:24 53.34063 -2.09323 35092 ft 620 kts 100°
2026-02-17 15:25 53.32492 -1.95095 35081 ft 625 kts 99°
2026-02-17 15:25 53.30963 -1.80712 35077 ft 626 kts 99°
2026-02-17 15:26 53.29460 -1.66440 35071 ft 626 kts 99°
2026-02-17 15:27 53.27141 -1.44937 35070 ft 625 kts 99°
2026-02-17 15:27 53.25586 -1.30706 35064 ft 625 kts 99°
2026-02-17 15:28 53.24009 -1.16425 35060 ft 624 kts 99°
2026-02-17 15:28 53.22413 -1.02137 35065 ft 624 kts 99°
2026-02-17 15:29 53.20813 -0.87966 35070 ft 624 kts 99°
2026-02-17 15:29 53.19192 -0.73766 35076 ft 624 kts 99°
2026-02-17 15:30 53.17562 -0.59635 35085 ft 624 kts 99°
2026-02-17 15:30 53.15894 -0.45326 35079 ft 625 kts 99°
2026-02-17 15:31 53.13380 -0.24035 35079 ft 625 kts 99°
2026-02-17 15:31 53.11685 -0.09876 35081 ft 625 kts 99°
2026-02-17 15:32 53.09971 0.04292 35076 ft 626 kts 99°
2026-02-17 15:32 53.08239 0.18452 35064 ft 626 kts 99°
2026-02-17 15:33 53.06478 0.32702 35057 ft 626 kts 99°
2026-02-17 15:33 53.04710 0.46859 35052 ft 627 kts 99°
2026-02-17 15:34 53.02921 0.61045 35050 ft 627 kts 99°
2026-02-17 15:35 53.00214 0.82232 35051 ft 627 kts 99°
2026-02-17 15:35 52.98385 0.96381 35047 ft 627 kts 99°
2026-02-17 15:36 52.96890 1.08225 35049 ft 627 kts 98°
2026-02-17 15:36 52.95265 1.22365 35045 ft 626 kts 97°
2026-02-17 15:37 52.93652 1.36564 35043 ft 626 kts 97°
2026-02-17 15:37 52.91979 1.50809 35036 ft 627 kts 97°
2026-02-17 15:38 52.90282 1.64927 35027 ft 627 kts 97°
2026-02-17 15:38 52.88568 1.79029 35020 ft 626 kts 97°
2026-02-17 15:39 52.85966 2.00231 35016 ft 626 kts 97°
2026-02-17 15:39 52.84215 2.14320 35014 ft 626 kts 97°
2026-02-17 15:40 52.82444 2.28427 35009 ft 626 kts 97°
2026-02-17 15:40 52.80648 2.42588 35001 ft 626 kts 97°
2026-02-17 15:41 52.78848 2.56625 34988 ft 626 kts 97°
2026-02-17 15:41 52.77019 2.70689 34990 ft 626 kts 97°
2026-02-17 15:42 52.75191 2.84681 34984 ft 626 kts 97°
2026-02-17 15:43 52.72635 3.05752 34967 ft 622 kts 93°
2026-02-17 15:43 52.71343 3.19840 34964 ft 621 kts 92°
2026-02-17 15:44 52.70085 3.33950 34958 ft 621 kts 92°
2026-02-17 15:44 52.68772 3.48018 34957 ft 621 kts 92°
2026-02-17 15:45 52.67414 3.62080 34949 ft 621 kts 92°
2026-02-17 15:45 52.66041 3.76131 34946 ft 621 kts 92°
2026-02-17 15:46 52.64665 3.90094 34937 ft 620 kts 92°
2026-02-17 15:46 52.63262 4.04167 34939 ft 619 kts 92°
2026-02-17 15:47 52.61138 4.25063 34915 ft 619 kts 94°
2026-02-17 15:47 52.59532 4.39047 34907 ft 619 kts 95°
2026-02-17 15:48 52.57924 4.52424 34904 ft 618 kts 95°
2026-02-17 15:48 52.56272 4.66317 34891 ft 617 kts 94°
2026-02-17 15:49 52.54637 4.80105 34896 ft 616 kts 94°
2026-02-17 15:49 52.53001 4.93897 34901 ft 615 kts 94°
2026-02-17 15:50 52.51423 5.07737 34889 ft 613 kts 94°
2026-02-17 15:51 52.49076 5.28261 34862 ft 611 kts 94°
2026-02-17 15:51 52.47470 5.41973 34863 ft 609 kts 94°
2026-02-17 15:52 52.45849 5.55626 34861 ft 607 kts 94°
2026-02-17 15:52 52.44226 5.69150 34860 ft 605 kts 94°
2026-02-17 15:53 52.42592 5.82651 34855 ft 602 kts 95°
2026-02-17 15:53 52.40961 5.95997 34845 ft 599 kts 95°
2026-02-17 15:54 52.39308 6.09387 34836 ft 596 kts 95°
2026-02-17 15:54 52.36829 6.29222 34834 ft 591 kts 95°
2026-02-17 15:55 52.35171 6.42328 34829 ft 588 kts 96°
2026-02-17 15:55 52.33507 6.55360 34820 ft 586 kts 96°
2026-02-17 15:56 52.31830 6.68373 34817 ft 583 kts 96°
2026-02-17 15:56 52.30144 6.81339 34809 ft 581 kts 96°
2026-02-17 15:57 52.28456 6.94203 34814 ft 579 kts 96°
2026-02-17 15:57 52.26761 7.07001 34806 ft 578 kts 97°
2026-02-17 15:58 52.25045 7.19845 34804 ft 576 kts 97°
2026-02-17 15:59 52.22467 7.38923 34805 ft 575 kts 97°
2026-02-17 15:59 52.20727 7.51668 34811 ft 576 kts 97°
2026-02-17 16:00 52.18976 7.64383 34812 ft 577 kts 98°
2026-02-17 16:00 52.17195 7.77199 34810 ft 577 kts 98°
2026-02-17 16:01 52.15412 7.89920 34809 ft 577 kts 98°
2026-02-17 16:01 52.13622 8.02578 34789 ft 576 kts 98°
2026-02-17 16:02 52.11816 8.15252 34788 ft 576 kts 98°
2026-02-17 16:02 52.09066 8.34345 34772 ft 575 kts 99°
2026-02-17 16:03 52.07232 8.46951 34772 ft 574 kts 99°
2026-02-17 16:03 52.05379 8.59581 34766 ft 573 kts 99°
2026-02-17 16:04 52.03519 8.72155 34763 ft 572 kts 99°
2026-02-17 16:04 52.01660 8.84624 34758 ft 570 kts 100°
2026-02-17 16:05 51.99780 8.97142 34761 ft 570 kts 100°
2026-02-17 16:05 51.97899 9.09567 34761 ft 569 kts 100°
2026-02-17 16:06 51.96001 9.22001 34766 ft 568 kts 100°
2026-02-17 16:07 51.93135 9.40609 34787 ft 567 kts 101°
2026-02-17 16:07 51.91203 9.53023 34782 ft 566 kts 101°
2026-02-17 16:08 51.89278 9.65305 34767 ft 561 kts 101°
2026-02-17 16:08 51.86398 9.83577 34758 ft 544 kts 100°
2026-02-17 16:09 51.85549 9.89438 34587 ft 534 kts 99°
2026-02-17 16:09 51.84759 9.95284 34132 ft 529 kts 98°
2026-02-17 16:09 51.84005 10.01013 33673 ft 524 kts 98°
2026-02-17 16:09 51.83243 10.06788 33156 ft 519 kts 99°
2026-02-17 16:10 51.82475 10.12498 32659 ft 514 kts 99°
2026-02-17 16:10 51.81714 10.18062 32206 ft 509 kts 99°
2026-02-17 16:10 51.80172 10.29135 31302 ft 500 kts 99°
2026-02-17 16:11 51.79405 10.34595 30859 ft 495 kts 100°
2026-02-17 16:11 51.78638 10.40032 30422 ft 491 kts 100°
2026-02-17 16:11 51.77890 10.45330 29980 ft 487 kts 100°
2026-02-17 16:11 51.77137 10.50643 29493 ft 482 kts 100°
2026-02-17 16:12 51.76396 10.55866 29004 ft 477 kts 101°
2026-02-17 16:12 51.75656 10.61053 28570 ft 472 kts 101°
2026-02-17 16:12 51.74918 10.66212 28120 ft 466 kts 101°
2026-02-17 16:12 51.74190 10.71293 27696 ft 460 kts 101°
2026-02-17 16:13 51.73474 10.76272 27266 ft 455 kts 102°
2026-02-17 16:13 51.72764 10.81172 26838 ft 450 kts 102°
2026-02-17 16:13 51.71900 10.86028 26428 ft 446 kts 109°
2026-02-17 16:13 51.70785 10.90703 26010 ft 442 kts 111°
2026-02-17 16:14 51.69648 10.95274 25608 ft 438 kts 112°
2026-02-17 16:14 51.68528 10.99768 25201 ft 434 kts 112°
2026-02-17 16:14 51.66321 11.08741 24411 ft 426 kts 112°
2026-02-17 16:15 51.65231 11.13209 24016 ft 423 kts 112°
2026-02-17 16:15 51.64171 11.17550 23620 ft 420 kts 112°
2026-02-17 16:15 51.63108 11.21889 23217 ft 417 kts 113°
2026-02-17 16:15 51.61911 11.26099 22755 ft 412 kts 120°
2026-02-17 16:16 51.60460 11.30025 22358 ft 405 kts 127°
2026-02-17 16:16 51.58812 11.33691 21979 ft 400 kts 128°
2026-02-17 16:16 51.57169 11.37298 21579 ft 395 kts 128°
2026-02-17 16:16 51.55581 11.40822 21229 ft 391 kts 128°
2026-02-17 16:17 51.53995 11.44367 20831 ft 387 kts 128°
2026-02-17 16:17 51.52544 11.47975 20432 ft 383 kts 116°
2026-02-17 16:17 51.51713 11.51966 20097 ft 379 kts 101°
2026-02-17 16:17 51.51489 11.56167 19710 ft 375 kts 86°
2026-02-17 16:18 51.51726 11.60267 19346 ft 370 kts 83°
2026-02-17 16:18 51.51979 11.64392 18983 ft 367 kts 84°
2026-02-17 16:18 51.52417 11.72452 18257 ft 361 kts 85°
2026-02-17 16:19 51.52622 11.76486 17883 ft 359 kts 85°
2026-02-17 16:19 51.52823 11.80481 17489 ft 359 kts 85°